Owosso, MI

8:36 AM EDT on May 28, 2017 (GMT -0400)
Owosso

Weather History for KRNP - May, 2012

Change the Weather History Date:

Thursday, May 10, 2012

  Actual Average (KFNT) Record (KFNT)
Temperature  
Mean Temperature 50 °F -  
Max Temperature 64 °F 67 °F 92 °F (1936)
Min Temperature 35 °F 42 °F 22 °F (1966)
Degree Days  
Heating Degree Days 16    
Moisture  
Dew Point 32 °F    
Average Humidity 51    
Maximum Humidity 81    
Minimum Humidity 25    
Precipitation  
Precipitation 0.00 in - - ()
Sea Level Pressure  
Sea Level Pressure 29.92 in    
Wind  
Wind Speed 5 mph (NW)    
Max Wind Speed 14 mph    
Max Gust Speed 20 mph    
Visibility 10 miles    
Events      
Averages and records for this station are not official NWS values.
T = Trace of Precipitation, MM = Missing Value Source: NWS Daily Summary

Daily Weather History Graph

Daily Weather History Graph

Search for Another Location

Airport or City:

Trip Planner

Search our weather history database for the weather conditions in past years. The results will help you decide how hot, cold, wet, or windy it might be!

Date:

Astronomy

May. 10, 2012 Rise Set
Actual Time 6:18 AM EDT 8:48 PM EDT
Civil Twilight 5:46 AM EDT 9:20 PM EDT
Nautical Twilight 5:06 AM EDT 10:00 PM EDT
Astronomical Twilight 4:21 AM EDT 10:45 PM EDT
Moon 12:46 AM EDT (5/10) 10:41 AM EDT (5/10)
Length of Visible Light 15h 34m
Length of Day
14h 29m
Waning Gibbous, 73% of the Moon is Illuminated
May 10
Waning Gibbous
May 12
Last Quarter
May 20
New
May 28
First Quarter
Jun 4
Full

Hourly Weather History & Observations

Time (EDT) Temp. Windchill Dew Point Humidity Pressure Visibility Wind Dir Wind Speed Gust Speed Precip Events Conditions
12:05 AM 44.6 °F - 37.4 °F 76% 29.87 in 10.0 mi Calm Calm - N/A   Clear
12:25 AM 46.4 °F 45.2 °F 37.4 °F 71% 29.87 in 10.0 mi NW 3.5 mph - N/A   Clear
12:45 AM 44.6 °F 43.1 °F 35.6 °F 71% 29.87 in 10.0 mi NNW 3.5 mph - N/A   Clear
1:05 AM 44.6 °F 42.2 °F 33.8 °F 66% 29.87 in 10.0 mi NW 4.6 mph - N/A   Clear
1:25 AM 44.6 °F 42.2 °F 33.8 °F 66% 29.87 in 10.0 mi NW 4.6 mph - N/A   Clear
1:45 AM 42.8 °F - 33.8 °F 70% 29.87 in 10.0 mi Calm Calm - N/A   Clear
2:05 AM 42.8 °F 41.1 °F 33.8 °F 70% 29.87 in 10.0 mi WNW 3.5 mph - N/A   Clear
2:25 AM 41.0 °F 38.0 °F 32.0 °F 70% 29.87 in 10.0 mi WNW 4.6 mph - N/A   Clear
2:45 AM 41.0 °F 38.0 °F 32.0 °F 70% 29.87 in 10.0 mi WNW 4.6 mph - N/A   Clear
3:05 AM 39.2 °F 35.9 °F 32.0 °F 75% 29.87 in 10.0 mi West 4.6 mph - N/A   Clear
3:25 AM 39.2 °F 35.9 °F 32.0 °F 75% 29.87 in 10.0 mi WNW 4.6 mph - N/A   Clear
3:45 AM 39.2 °F 35.9 °F 32.0 °F 75% 29.87 in 10.0 mi WNW 4.6 mph - N/A   Clear
4:05 AM 39.2 °F 35.9 °F 32.0 °F 75% 29.87 in 10.0 mi WNW 4.6 mph - N/A   Clear
4:25 AM 39.2 °F 35.0 °F 32.0 °F 75% 29.87 in 10.0 mi WNW 5.8 mph - N/A   Clear
4:45 AM 39.2 °F 37.0 °F 30.2 °F 70% 29.87 in 10.0 mi West 3.5 mph - N/A   Clear
5:05 AM 37.4 °F 33.8 °F 32.0 °F 81% 29.87 in 10.0 mi West 4.6 mph - N/A   Clear
5:45 AM 37.4 °F 33.8 °F 32.0 °F 81% 29.88 in 10.0 mi West 4.6 mph - N/A   Clear
6:05 AM 37.4 °F 34.9 °F 30.2 °F 75% 29.89 in 10.0 mi West 3.5 mph - N/A   Clear
6:25 AM 35.6 °F 31.7 °F 30.2 °F 81% 29.89 in 10.0 mi West 4.6 mph - N/A   Clear
6:45 AM 37.4 °F 34.9 °F 32.0 °F 81% 29.90 in 10.0 mi West 3.5 mph - N/A   Clear
7:05 AM 39.2 °F 35.9 °F 32.0 °F 75% 29.90 in 10.0 mi West 4.6 mph - N/A   Clear
7:25 AM 41.0 °F 36.4 °F 32.0 °F 70% 29.91 in 10.0 mi WNW 6.9 mph - N/A   Clear
7:45 AM 42.8 °F 38.0 °F 32.0 °F 66% 29.91 in 10.0 mi WNW 8.1 mph - N/A   Clear
8:05 AM 42.8 °F 38.6 °F 32.0 °F 66% 29.92 in 10.0 mi WNW 6.9 mph - N/A   Clear
8:25 AM 44.6 °F 41.4 °F 32.0 °F 61% 29.92 in 10.0 mi NW 5.8 mph - N/A   Clear
8:45 AM 46.4 °F 41.9 °F 33.8 °F 62% 29.92 in 10.0 mi NW 9.2 mph - N/A   Clear
9:05 AM 46.4 °F 42.4 °F 33.8 °F 62% 29.93 in 10.0 mi WNW 8.1 mph - N/A   Clear
9:25 AM 48.2 °F - 35.6 °F 62% 29.93 in 10.0 mi WNW 9.2 mph - N/A   Clear
9:45 AM 48.2 °F - 33.8 °F 58% 29.94 in 10.0 mi NW 9.2 mph - N/A   Clear
10:14 AM 50.4 °F - 35.6 °F 57% 29.94 in 10.0 mi NW 5.8 mph - N/A   Clear
10:35 AM 52.3 °F - 36.3 °F 54% 29.95 in 10.0 mi NNW 5.8 mph - N/A   Clear
10:54 AM 53.4 °F - 36.0 °F 52% 29.95 in 10.0 mi NW 8.1 mph - N/A   Clear
11:14 AM 54.5 °F - 34.7 °F 47% 29.95 in 10.0 mi NNW 4.6 mph - N/A   Clear
11:34 AM 56.7 °F - 35.6 °F 45% 29.96 in 10.0 mi NNW 8.1 mph 16.1 mph N/A   Clear
11:54 AM 56.8 °F - 32.5 °F 40% 29.95 in 10.0 mi North 10.4 mph - N/A   Clear
12:15 PM 58.6 °F - 31.6 °F 36% 29.94 in 10.0 mi North 10.4 mph 16.1 mph N/A   Clear
12:34 PM 59.7 °F - 31.5 °F 34% 29.94 in 10.0 mi NW 13.8 mph 19.6 mph N/A   Clear
12:54 PM 59.5 °F - 30.6 °F 33% 29.94 in 10.0 mi North 10.4 mph 16.1 mph N/A   Clear
1:15 PM 59.9 °F - 28.9 °F 31% 29.94 in 10.0 mi North 8.1 mph 19.6 mph N/A   Clear
1:34 PM 60.6 °F - 30.6 °F 32% 29.94 in 10.0 mi NW 8.1 mph 17.3 mph N/A   Clear
1:54 PM 60.8 °F - 30.4 °F 32% 29.94 in 10.0 mi NNW 10.4 mph 17.3 mph N/A   Scattered Clouds
2:15 PM 61.0 °F - 30.4 °F 32% 29.94 in 10.0 mi NNE 8.1 mph 19.6 mph N/A   Scattered Clouds
2:34 PM 62.8 °F - 29.5 °F 29% 29.94 in 10.0 mi North 10.4 mph 17.3 mph N/A   Clear
2:54 PM 62.2 °F - 30.0 °F 30% 29.94 in 10.0 mi NW 6.9 mph - N/A   Scattered Clouds
3:14 PM 62.1 °F - 29.5 °F 29% 29.93 in 10.0 mi North 8.1 mph 17.3 mph N/A   Scattered Clouds
3:34 PM 61.9 °F - 28.2 °F 28% 29.93 in 10.0 mi NNW 9.2 mph - N/A   Mostly Cloudy
3:55 PM 63.1 °F - 28.6 °F 27% 29.93 in 10.0 mi North 9.2 mph - N/A   Overcast
4:14 PM 63.0 °F - 29.1 °F 28% 29.92 in 10.0 mi NNW 9.2 mph - N/A   Mostly Cloudy
4:34 PM 62.4 °F - 28.6 °F 28% 29.93 in 10.0 mi NW 5.8 mph - N/A   Mostly Cloudy
4:55 PM 63.9 °F - 28.4 °F 26% 29.93 in 10.0 mi North 6.9 mph 17.3 mph N/A   Mostly Cloudy
5:14 PM 63.9 °F - 29.3 °F 27% 29.93 in 10.0 mi NW 3.5 mph 16.1 mph N/A   Scattered Clouds
5:35 PM 64.9 °F - 29.5 °F 26% 29.93 in 10.0 mi West 10.4 mph 18.4 mph N/A   Scattered Clouds
5:54 PM 63.0 °F - 28.0 °F 27% 29.93 in 10.0 mi WNW 8.1 mph - N/A   Clear
6:14 PM 63.3 °F - 27.9 °F 26% 29.93 in 10.0 mi NW 6.9 mph - N/A   Scattered Clouds
6:35 PM 64.4 °F - 28.4 °F 26% 29.93 in 10.0 mi NW 5.8 mph - N/A   Scattered Clouds
6:54 PM 63.9 °F - 27.5 °F 25% 29.93 in 10.0 mi NW 4.6 mph - N/A   Scattered Clouds
7:14 PM 63.7 °F - 27.3 °F 25% 29.93 in 10.0 mi NW 6.9 mph - N/A   Clear
7:35 PM 63.0 °F - 27.5 °F 26% 29.93 in 10.0 mi NNW 5.8 mph - N/A   Scattered Clouds
7:54 PM 62.4 °F - 28.8 °F 28% 29.94 in 10.0 mi NNW 5.8 mph - N/A   Clear
8:14 PM 61.7 °F - 29.5 °F 30% 29.94 in 10.0 mi WNW 4.6 mph - N/A   Clear
8:35 PM 59.5 °F - 31.1 °F 34% 29.94 in 10.0 mi WNW 4.6 mph - N/A   Clear
8:54 PM 58.1 °F - 30.6 °F 35% 29.95 in 10.0 mi WNW 5.8 mph - N/A   Clear
9:15 PM 55.6 °F - 32.4 °F 41% 29.96 in 10.0 mi West 4.6 mph - N/A   Clear
9:34 PM 55.8 °F - 32.0 °F 41% 29.96 in 10.0 mi Calm Calm - N/A   Clear
9:54 PM 54.5 °F - 33.8 °F 46% 29.97 in 10.0 mi West 3.5 mph - N/A   Clear
10:15 PM 50.5 °F - 36.9 °F 59% 29.98 in 10.0 mi Calm Calm - N/A   Clear
10:34 PM 49.3 °F - 37.9 °F 65% 29.98 in 10.0 mi Calm Calm - N/A   Clear
10:54 PM 47.7 °F - 38.5 °F 70% 29.99 in 10.0 mi Calm Calm - N/A   Clear
11:15 PM 47.5 °F - 38.1 °F 70% 29.99 in 10.0 mi Calm Calm - N/A   Clear
11:34 PM 49.5 °F - 35.4 °F 58% 30.00 in 10.0 mi WSW 3.5 mph - N/A   Clear